Regional Weather Roundup
Issued by NWS Green Bay, WI

Home | Current Version | Previous Version | Graphics & Text | Print | Product List | Glossary Off
Versions: 1 2 3 4 5 6 7 8 9 10 11 12 13 14 15 16 17 18 19 20 21 22 23 24 25 26 27 28 29 30 31 32 33 34 35 36 37 38 39 40 41 42 43 44 45 46 47 48 49 50

000
ASUS43 KGRB 260511
RWRGRB

NORTH-CENTRAL AND NORTHEAST WISCONSIN REGIONAL WEATHER ROUNDUP
NATIONAL WEATHER SERVICE GREEN BAY WI
1200 AM CDT SAT MAY 26 2018

WIZ005-009-010>012-018-019-260600-
NORTH CENTRAL WISCONSIN

CITY           SKY/WX    TMP DP  RH WIND       PRES   REMARKS
IRONWOOD       FAIR      70  60  70 SW9       29.68R
MANITOWISH WTR FAIR      61  61 100 CALM      29.71S
ARBOR VITAE    FAIR      67  64  89 CALM      29.71F
EAGLE RIVER    FAIR      67  63  87 CALM      29.72S
LAND O LAKES   FAIR      66  63  90 CALM      29.73S
RHINELANDER    FAIR      68  63  84 W5        29.72F
PHILLIPS       FAIR      63  63  99 CALM      29.71S
ANTIGO         MOCLDY    63  62  96 SW9       29.73F
TOMAHAWK       FAIR      61  59  93 CALM      29.72S
MERRILL        FAIR      62  62 100 CALM      29.71F
$$

WIZ013-073-260600-
NORTHEAST WISCONSIN

CITY           SKY/WX    TMP DP  RH WIND       PRES   REMARKS
IRON MOUNTAIN  FAIR      63  61  93 CALM      29.69F
MARINETTE      CLOUDY    64  61  90 CALM      29.71R
OCONTO         MOCLDY    64  59  83 E5        29.70R
$$

WIZ017-030-035>037-045-260600-
CENTRAL WISCONSIN

CITY           SKY/WX    TMP DP  RH WIND       PRES   REMARKS
MEDFORD        FAIR      59  58  97 CALM      29.72F
WAUSAU         NOT AVBL
MOSINEE        FAIR      68  63  83 N6        29.73R
MARSHFIELD     FAIR      63  60  90 W5        29.71R
WISC RAPIDS    FAIR      68  63  84 CALM      29.71S
STEVENS POINT  FAIR      66  64  94 CALM      29.71S
WAUPACA        FAIR      71  65  80 CALM      29.71S
SHAWANO        FAIR      70  66  85 CALM      29.70S
CLINTONVILLE   FAIR      71  65  82 NW5       29.70S
WAUTOMA        FAIR      70  64  81 SW7       29.72S
$$

WIZ038-039-048-051-260600-
FOX VALLEY

CITY           SKY/WX    TMP DP  RH WIND       PRES   REMARKS
NWS GREEN BAY  FAIR      74  64  71 S7        29.70F
APPLETON       FAIR      72  57  60 S7        29.70F
OSHKOSH        FAIR      71  61  70 S10       29.71F
FOND DU LAC    FAIR      72  61  68 S9        29.71F
$$

WIZ022-050-052-260600-
EAST CENTRAL WISCONSIN

CITY           SKY/WX    TMP DP  RH WIND       PRES   REMARKS
EPHRAIM        CLOUDY    65  62  90 SE8       29.70S
WASHINGTON ISL NOT AVBL
STURGEON BAY   CLOUDY    63  60  90 SE7       29.71F
MANITOWOC      NOT AVBL
SHEBOYGAN      FAIR      68  60  75 S5        29.72F
$$

LMZ563-521-522-541>543-260600-
LAKESHORE

STATION/POSITION TIME  TEMP    WIND        PRES    VSBY  WAVE
                       AIR SEA DIR/SP/G                  HT/PER
                 (UTC) (F)     (DEG/KT/KT) (MB)    (MI)  (FT/S)
SHEBOYGAN LKSHOR 0500   65     180/  4/  6 1005.8F
KEWAUNEE LKSHORE 0448   62     220/  5/  8 1005.2F
NORTHPORT PIER   0441   62     180/  3/  5 1005.4F
N MID LAKE BUOY  0450   46 38  150/  8/ 10  999.3F         2/ 4
SISTER BAY LKSHO 0457   61     170/  8/ 10   N/A
MENOMINEE LKSHOR 0448   62     140/  4/  5 1005.5R
$$




USA.gov is the U.S. government's official web portal to all federal, state and local government web resources and services.